Theta_e
295 297 297 297 297 297 297 297 297 297 297 297 298 298 298 298 299 299 298 299 299 298 298 299 298 299 299 299 299 298 298 298 297 297 297 297 296 297 296 295 295 296 296 295 295 296 297 297 298 298 296 297 297 297 296 296 295 295 294 292 292 291 292 292 291 292 290 284 284 286 285 286 285 287 291 292 291 290 292 288 288 290 291 293 295
295 297 296 297 296 297 296 296 297 296 296 296 297 297 297 298 298 297 298 298 298 298 298 299 298 298 298 298 298 298 298 298 297 297 297 296 296 297 296 295 295 295 294 295 294 295 296 296 297 296 296 297 298 297 297 296 295 294 294 293 292 292 292 293 292 292 293 283 284 282 284 285 290 286 290 292 292 290 289 290 288 288 291 291 292
295 295 295 295 296 296 296 296 296 296 296 296 296 297 297 296 295 297 298 297 297 298 298 298 298 298 298 298 298 298 298 298 297 297 297 297 296 296 296 295 295 295 294 295 295 294 294 295 296 296 294 295 296 297 296 296 296 296 296 294 294 294 292 293 293 292 292 291 286 286 284 285 288 289 287 290 292 290 290 290 291 290 289 290 291
292 293 293 294 294 294 295 295 295 295 296 297 297 297 297 296 295 296 296 296 297 296 297 297 297 297 297 297 297 297 297 297 297 297 297 297 296 296 296 295 295 295 295 295 294 293 294 294 295 294 293 294 295 296 295 294 295 295 296 296 295 296 294 291 293 295 293 292 284 287 285 285 286 286 285 285 288 289 289 290 287 289 289 289 289
292 292 293 294 293 294 294 294 295 295 296 296 296 295 294 295 293 294 294 294 294 295 294 294 296 296 297 297 296 296 296 296 296 296 296 296 296 296 296 295 295 295 295 295 294 294 294 294 295 293 292 293 294 294 294 293 294 294 295 296 295 296 294 292 292 293 293 292 292 284 283 284 285 284 284 286 285 286 285 287 289 289 288 287 287
292 293 292 293 293 293 293 292 294 295 295 294 294 294 294 292 292 292 293 295 293 293 295 295 296 296 296 297 296 296 296 296 296 296 296 295 295 295 295 295 295 295 295 295 294 293 294 294 294 292 292 292 294 294 293 292 293 293 294 295 295 294 294 292 292 292 292 293 293 291 280 284 283 283 283 285 286 286 286 287 285 285 286 287 288
291 291 290 291 291 291 292 293 293 293 292 293 293 290 291 292 291 293 291 293 293 292 291 293 293 295 296 295 295 295 295 295 295 295 295 295 295 294 294 294 294 294 294 294 293 293 293 294 294 292 292 292 293 293 292 291 292 292 293 294 294 292 292 292 291 290 291 291 291 291 289 283 284 285 282 282 284 286 287 286 286 287 286 287 290
289 289 288 289 290 290 290 290 290 291 290 289 289 290 289 289 290 291 290 291 292 292 292 293 292 292 294 294 295 294 294 294 294 294 294 294 294 294 294 293 293 293 292 293 293 293 293 293 293 293 293 293 293 293 292 292 291 291 292 292 291 290 291 291 290 290 290 290 291 292 289 288 280 278 278 281 281 282 284 286 287 288 288 287 288
288 288 287 289 289 288 287 286 286 287 287 287 287 288 289 289 289 289 288 289 292 291 292 292 291 290 289 291 291 291 293 294 294 294 293 293 293 293 293 293 293 292 292 292 292 292 292 292 293 293 293 292 292 293 293 293 292 290 290 290 290 290 290 290 290 289 289 289 290 290 289 286 284 282 279 280 282 286 286 284 285 287 287 285 286
289 287 288 288 286 284 285 285 286 286 286 287 288 287 287 287 288 287 288 288 288 288 288 288 290 291 291 289 288 290 292 293 292 293 294 294 293 293 293 292 292 292 291 291 290 290 291 291 292 292 291 291 291 291 292 292 292 293 292 290 290 290 290 289 289 288 289 288 289 289 288 288 287 284 284 284 284 282 281 283 284 285 283 284 284
286 287 288 285 284 284 285 285 285 287 286 286 285 286 285 285 285 286 286 286 286 286 287 287 287 288 290 290 289 289 289 290 292 294 295 295 293 291 291 291 290 290 290 290 290 290 289 290 290 290 290 290 290 291 292 292 292 292 292 292 292 291 290 289 289 289 288 288 289 288 289 289 289 287 285 286 283 283 284 283 284 283 284 284 285
286 284 284 283 284 285 285 284 285 285 285 285 284 284 284 284 285 285 285 286 286 285 286 286 286 285 286 286 286 286 287 291 293 294 294 295 293 291 291 290 290 289 288 289 289 289 288 288 288 289 289 289 290 290 290 291 291 292 292 292 292 292 293 292 291 289 288 288 288 288 288 289 289 288 286 284 284 282 282 282 283 283 283 284 285
284 285 284 285 283 284 284 286 284 284 284 284 284 284 284 284 284 285 286 284 284 286 284 285 285 284 285 286 286 285 284 290 293 293 294 294 294 292 290 289 289 287 287 287 287 287 287 287 287 288 289 288 288 288 288 289 289 290 291 291 291 292 293 293 293 293 291 289 289 289 289 289 288 289 288 287 285 284 281 281 282 283 284 284 285
284 284 283 283 283 282 284 285 285 284 283 283 284 284 285 286 284 284 284 283 285 284 284 284 283 284 283 285 284 283 285 287 291 292 292 293 293 293 286 287 286 286 286 286 286 286 286 287 287 287 286 285 286 287 287 287 287 287 287 288 288 289 290 291 292 291 291 291 290 289 290 289 289 289 287 287 284 284 282 282 282 282 283 284 286
283 283 284 282 283 283 284 283 283 283 282 283 282 283 284 282 283 283 284 285 286 286 285 285 283 282 282 282 284 283 282 289 291 292 292 293 293 293 286 285 285 284 285 283 284 284 284 286 285 286 286 285 286 286 286 286 286 287 286 286 287 287 288 289 290 290 290 291 290 290 290 289 290 289 287 286 287 287 286 285 285 284 284 285 283
283 283 283 281 282 280 282 282 282 281 282 282 283 282 282 283 284 281 281 282 282 282 282 282 282 283 282 281 283 285 281 289 290 291 292 293 293 286 284 284 283 283 283 282 282 283 283 284 284 284 284 285 287 289 288 286 286 286 286 286 286 287 287 288 290 291 290 291 291 291 291 290 291 289 288 286 286 286 285 285 282 281 281 281 281
281 281 282 281 281 281 281 282 282 281 281 282 281 281 281 282 282 281 282 280 281 282 282 282 280 281 280 281 282 282 282 285 289 290 291 292 289 282 283 282 282 282 281 282 282 281 282 282 282 283 283 284 287 290 291 289 287 287 287 287 287 286 287 286 289 291 291 291 292 292 292 293 293 293 293 292 287 285 283 282 282 281 280 281 282
280 280 280 279 280 280 280 281 281 281 281 281 280 280 280 280 281 281 281 281 282 281 280 280 280 280 281 281 281 282 280 284 289 289 290 290 287 282 282 282 282 281 280 280 281 281 281 284 284 283 284 284 288 290 291 289 287 287 287 287 287 287 287 287 286 287 288 289 289 289 290 291 291 292 293 292 291 288 284 284 284 282 281 283 282
278 278 278 278 279 279 280 280 280 280 281 279 279 281 280 279 279 279 280 280 280 279 280 282 280 281 281 281 280 280 279 282 287 287 288 287 284 281 282 282 282 281 281 282 281 281 281 283 284 285 286 287 289 290 290 288 287 287 287 286 286 286 287 287 286 286 285 285 286 286 286 287 287 287 288 290 290 288 286 286 286 283 283 283 283
276 277 277 277 277 278 278 278 278 278 279 279 280 279 278 279 279 279 279 279 280 279 280 281 280 279 279 279 279 278 279 280 283 286 286 286 285 281 282 282 283 284 284 284 284 283 283 283 285 287 288 288 289 290 290 290 288 287 286 286 286 286 287 286 286 286 286 285 285 285 285 285 285 285 286 286 287 287 286 285 286 285 284 285 285
276 276 276 276 276 276 276 277 277 277 277 278 278 278 278 278 278 279 278 279 279 280 280 279 279 277 277 278 277 277 278 278 280 285 285 285 285 282 279 280 280 281 282 283 284 283 284 284 283 284 286 287 287 288 289 289 289 287 286 286 286 287 287 284 284 284 284 283 282 282 282 281 282 283 283 284 285 286 286 286 285 285 285 284 284
276 276 275 275 275 275 275 276 276 277 276 277 277 277 277 277 277 277 278 278 278 278 278 278 277 276 276 276 276 276 277 277 277 281 283 284 284 283 280 279 280 278 279 280 281 282 282 282 282 283 285 285 286 286 287 288 288 286 285 288 288 288 286 285 283 282 282 281 280 279 279 278 279 279 279 280 282 283 285 286 285 284 285 285 284
275 275 274 274 274 274 274 274 275 275 275 275 276 275 275 275 275 275 276 276 276 275 275 276 275 274 274 274 274 274 275 276 278 277 281 282 282 282 282 281 281 278 276 275 276 277 278 279 281 283 283 283 284 285 285 286 285 285 287 287 288 288 286 284 282 281 281 281 281 280 280 280 279 279 279 279 280 280 281 283 284 285 284 283 279
273 272 272 272 272 272 272 272 272 273 273 273 273 272 272 273 273 273 273 273 273 273 273 273 273 272 272 272 272 273 273 273 276 277 278 280 281 281 281 281 281 278 276 275 275 276 276 276 279 281 282 282 283 283 283 283 283 284 285 285 285 284 283 283 282 282 281 280 280 280 280 280 279 280 280 280 280 281 281 280 277 276 276 275 273
271 270 270 270 270 270 271 270 270 271 271 272 272 272 272 272 271 271 271 271 271 271 271 271 270 270 270 270 270 271 272 272 273 275 276 277 279 279 279 279 279 279 275 274 275 275 279 280 281 280 280 281 281 281 280 280 282 282 283 283 283 282 281 281 281 281 281 281 281 281 281 281 281 280 280 279 278 276 274 272 272 271 271 271 270
269 268 268 269 269 269 270 270 270 271 272 273 272 273 272 273 272 272 271 270 270 270 269 269 269 269 269 269 269 271 272 272 273 273 274 275 275 276 277 277 276 276 276 275 277 278 279 279 279 279 279 278 277 274 275 276 280 280 281 281 281 281 280 280 280 280 280 280 281 281 281 281 280 280 279 277 276 277 277 275 274 272 272 272 272
268 267 267 267 267 268 270 270 270 271 271 272 273 273 273 273 272 272 272 271 270 270 270 269 268 268 267 269 270 272 272 273 274 273 274 274 273 272 272 272 274 275 272 272 274 274 276 277 277 278 278 278 277 278 277 277 276 275 274 275 276 278 279 279 279 279 279 279 279 280 279 276 274 275 275 276 276 277 276 275 276 275 274 271 273
266 266 266 266 266 266 267 269 270 270 270 271 271 272 272 273 272 272 272 272 271 272 271 271 271 271 271 271 270 271 271 272 272 272 272 273 273 272 271 270 270 270 271 272 273 275 276 276 275 273 272 272 272 271 270 271 273 275 274 274 275 277 279 279 279 279 278 279 278 277 274 274 274 275 274 274 275 275 273 273 274 274 272 271 271
266 265 266 265 265 265 265 266 267 268 270 271 271 271 270 271 271 272 274 273 272 271 270 270 270 270 270 270 269 269 270 270 271 273 273 274 273 272 271 271 272 270 274 277 277 275 274 273 272 272 272 272 272 271 271 271 272 273 272 273 273 273 273 274 275 276 277 276 275 276 275 274 273 273 272 272 273 273 271 270 271 271 269 271 270
266 265 265 265 265 265 264 264 265 266 268 269 270 270 273 273 272 270 270 273 274 275 273 270 270 269 268 269 270 268 269 271 273 273 272 273 274 275 275 275 276 275 276 277 275 270 271 270 272 272 272 272 272 272 273 273 272 272 271 273 273 273 273 273 273 272 273 273 273 273 272 272 270 271 270 270 271 269 269 270 268 270 268 268 270
265 265 265 264 265 264 264 264 264 265 266 267 268 268 268 270 271 272 271 271 272 273 274 273 273 272 268 265 268 272 272 273 272 271 271 273 273 274 274 275 275 275 275 271 266 268 267 267 268 268 268 268 268 269 269 269 269 269 270 271 271 272 272 271 271 272 271 270 269 269 269 270 270 270 269 269 269 268 267 268 268 267 268 268 269
263 263 264 264 264 263 263 263 263 262 263 263 264 264 265 265 267 270 269 269 270 270 271 271 271 271 271 270 267 266 270 271 271 269 269 270 271 271 272 274 273 273 272 271 263 264 265 264 265 264 265 264 265 266 265 266 265 266 266 267 267 269 269 268 270 271 271 271 269 268 268 269 270 269 269 268 268 267 267 266 267 266 267 268 268
261 261 262 262 263 263 262 262 262 261 261 262 262 263 262 263 263 263 266 268 267 267 268 268 268 268 268 268 268 268 268 269 269 268 267 269 270 269 270 272 272 271 269 263 260 260 262 262 262 262 262 261 262 263 262 263 263 263 264 264 265 265 266 266 269 269 269 269 270 270 270 269 269 268 268 267 267 266 267 266 266 266 266 266 266
261 261 262 262 262 262 261 261 262 261 262 261 261 262 262 262 262 262 260 261 262 264 266 266 266 265 265 266 264 265 266 267 267 266 266 267 268 269 268 267 269 269 265 258 259 258 260 260 259 260 260 260 260 261 260 261 261 261 261 262 262 263 263 265 266 267 267 268 268 269 269 269 268 267 267 267 267 266 265 265 265 264 264 265 265
262 263 263 263 262 262 262 262 262 262 261 261 261 261 262 262 262 262 261 260 260 260 260 261 263 265 263 263 263 263 264 264 265 265 264 266 267 267 265 260 258 258 259 258 257 257 258 258 257 257 259 258 258 259 259 259 259 259 258 259 260 260 261 263 265 265 264 265 265 266 267 268 268 268 267 267 266 265 265 265 264 265 264 264 265
261 261 261 261 261 261 261 261 262 261 261 261 261 261 262 261 261 260 260 260 259 258 258 259 258 261 263 262 262 262 262 263 263 263 262 264 265 264 256 256 256 257 257 255 255 256 255 255 255 254 256 256 257 257 258 257 257 256 256 258 258 259 260 262 262 262 262 263 263 265 265 266 267 267 267 267 266 266 266 265 265 264 265 264 264
260 260 260 260 260 260 261 261 261 261 261 260 260 260 260 260 260 259 259 259 258 257 257 256 257 257 259 259 261 260 262 261 261 260 261 261 263 258 254 254 253 253 255 254 254 254 252 252 253 251 254 254 253 255 255 254 254 254 257 257 257 257 258 260 260 260 260 261 261 262 263 264 265 266 266 266 266 266 266 265 265 264 264 264 264
261 261 260 260 260 260 260 260 260 260 259 258 258 258 258 259 258 258 257 256 257 256 255 255 258 254 255 255 259 257 257 259 260 258 258 257 256 253 252 252 253 253 254 253 254 252 252 252 252 251 251 252 252 253 253 252 253 253 254 254 255 256 259 258 258 257 258 259 260 260 261 261 262 263 264 264 265 265 265 265 265 264 264 264 263
260 261 261 261 260 259 259 259 258 258 257 257 257 257 256 256 256 255 254 253 253 254 255 253 252 253 254 254 254 257 256 254 254 252 253 252 252 250 249 250 251 251 252 251 252 252 251 250 251 252 251 250 251 250 251 250 252 252 253 253 253 254 254 254 254 255 256 256 257 257 258 258 259 260 261 262 263 264 265 265 264 264 263 263 263
257 258 259 259 258 258 258 258 257 256 256 255 255 256 254 255 254 254 253 253 253 253 252 252 252 252 253 253 253 254 253 253 253 253 252 252 252 251 250 250 249 249 250 247 248 247 248 247 247 248 247 247 248 249 250 250 250 252 252 253 253 252 253 254 254 255 255 255 255 255 255 256 257 258 258 259 261 262 262 263 264 264 264 263 263
255 257 257 258 258 256 257 256 255 255 255 255 255 254 253 255 255 254 253 253 253 253 253 253 252 253 254 257 258 258 253 250 251 251 251 251 251 250 249 248 249 248 249 249 248 247 247 246 246 247 247 247 248 249 249 249 250 250 250 252 251 252 252 252 253 253 253 253 253 253 253 254 255 256 255 257 259 259 260 261 262 262 263 263 263
255 255 255 256 256 255 255 254 255 255 254 255 254 254 254 254 254 253 253 253 253 253 253 252 252 251 254 257 257 258 253 249 251 250 250 250 249 248 250 248 247 247 247 247 247 247 248 248 248 248 247 247 248 248 249 247 248 247 247 248 248 249 250 250 251 250 250 250 250 251 251 253 253 254 254 256 255 256 257 258 259 260 261 261 261
255 255 255 255 255 255 254 254 254 253 254 253 253 255 255 254 252 253 252 252 252 252 251 251 251 251 252 256 257 257 252 248 252 250 249 249 249 249 249 248 248 247 247 247 246 246 246 246 245 246 247 246 246 246 246 245 246 245 245 246 246 247 247 248 248 248 247 247 247 249 249 249 251 250 251 252 253 253 254 255 256 257 258 259 259
254 254 254 254 254 254 253 253 252 253 252 253 254 253 253 252 252 251 250 250 250 250 250 250 250 250 249 251 253 251 248 249 247 247 248 249 249 249 248 246 246 245 245 244 244 244 245 244 244 244 243 244 243 243 243 243 244 244 243 243 245 248 246 246 245 245 245 245 246 247 246 247 249 248 249 251 250 251 252 253 254 254 255 256 257
253 252 252 251 252 251 251 252 252 252 253 253 251 250 252 250 250 249 250 249 250 250 250 250 250 249 250 249 248 247 248 247 249 249 248 248 248 248 247 245 245 245 244 244 243 242 242 243 242 242 243 242 241 241 241 241 242 241 241 242 242 243 244 243 242 244 245 243 245 245 245 246 244 245 246 247 249 248 250 250 251 253 253 254 255
252 252 252 251 251 251 251 250 252 251 250 250 249 248 248 248 248 248 249 250 250 250 249 249 248 248 249 247 247 248 248 246 246 247 247 247 246 247 245 244 244 243 243 244 244 242 243 242 242 242 242 241 241 240 240 239 240 241 240 239 241 243 243 242 242 242 243 242 244 243 244 245 244 246 249 247 247 248 248 248 248 250 251 252 253
250 251 251 251 250 251 251 251 249 248 247 248 248 248 248 248 248 249 250 250 250 249 248 248 247 248 247 247 247 247 247 246 246 246 247 247 244 246 244 243 243 243 244 244 241 242 242 243 242 241 241 239 239 240 240 240 237 238 240 241 239 241 240 241 244 242 243 243 245 243 244 243 246 244 247 247 247 247 248 248 248 249 250 251 251
249 249 249 250 249 249 248 248 248 251 249 248 248 248 248 248 248 248 247 248 248 248 248 246 246 246 246 247 246 246 245 245 246 247 246 245 244 245 244 242 244 244 243 243 242 242 241 241 241 239 240 241 241 241 241 239 238 238 238 238 239 240 244 247 245 245 243 244 244 244 243 244 244 244 245 246 244 246 247 247 248 248 248 250 251
248 248 248 248 248 249 248 248 248 248 248 248 247 248 247 247 247 247 247 247 247 247 247 247 247 246 245 247 246 246 245 245 246 244 245 246 244 245 244 242 243 244 243 244 244 242 242 240 241 241 240 240 240 240 240 240 240 239 240 239 242 248 248 248 248 246 249 245 243 242 241 241 241 243 245 245 246 246 246 246 246 248 248 248 249
248 248 248 248 248 248 247 247 247 246 247 246 246 247 247 246 247 247 247 246 246 246 246 246 246 246 246 246 245 246 244 245 246 246 245 244 245 243 243 244 243 243 243 242 243 243 241 240 239 239 240 239 239 239 238 240 239 241 239 241 246 248 249 249 250 249 247 241 241 240 240 241 240 241 242 243 243 244 244 245 246 248 248 247 248
248 247 247 247 247 247 246 245 246 246 245 246 246 246 246 246 246 247 246 246 246 246 246 246 246 246 246 246 245 246 246 245 246 245 245 245 244 242 244 244 244 243 242 243 243 243 241 239 239 240 240 241 240 241 238 240 238 238 244 248 249 249 250 249 245 247 248 247 242 241 242 243 242 243 243 243 243 243 245 246 247 246 247 247 248
Wind_Speed
7 8 7 8 7 8 7 6 7 6 6 7 7 7 7 7 8 8 5 8 7 8 9 9 9 10 10 9 10 9 9 9 8 8 8 9 8 9 8 9 10 10 8 9 7 7 9 10 10 9 6 8 8 7 7 7 7 7 6 7 7 7 8 8 9 11 5 3 3 4 2 4 3 6 8 8 7 7 6 5 5 5 6 6 6
8 8 6 6 8 7 7 5 6 5 6 6 7 7 6 7 6 5 8 8 8 9 10 9 8 9 9 10 9 9 9 9 9 8 10 9 9 7 8 9 10 10 7 9 8 8 8 10 10 8 8 10 9 9 9 8 8 7 7 8 8 9 8 9 10 8 13 1 5 2 1 3 6 4 10 9 10 5 7 7 5 6 7 6 6
6 6 6 6 7 6 6 6 5 6 7 7 7 7 6 5 5 7 8 7 7 8 9 9 9 8 8 8 9 9 9 9 9 9 10 10 10 8 8 8 10 10 10 11 10 8 8 10 11 8 5 8 10 10 7 9 8 9 10 8 10 10 9 10 8 10 12 9 5 5 5 4 9 7 7 7 6 4 7 8 8 6 5 5 7
5 5 5 6 6 5 7 6 6 7 8 8 8 7 6 6 5 6 6 5 7 7 6 7 7 8 8 8 9 9 9 8 8 9 10 9 9 10 9 9 9 10 10 10 8 8 10 9 11 8 7 9 10 9 7 6 8 9 10 9 9 10 8 7 10 11 8 9 4 8 5 7 8 4 3 4 6 6 7 6 3 7 7 6 6
5 5 6 7 7 8 7 7 7 7 8 7 7 6 6 6 5 6 5 5 5 5 5 5 6 7 9 9 8 8 9 9 9 8 8 8 9 9 9 9 9 10 10 10 8 8 9 11 11 6 6 9 10 8 8 9 9 8 10 10 9 9 6 8 10 9 9 10 8 3 4 6 3 3 4 6 5 6 4 7 8 8 7 5 4
5 6 6 7 7 8 7 6 7 8 8 7 7 6 5 5 5 4 5 6 5 5 6 6 7 8 8 8 8 8 8 8 9 9 8 8 8 8 8 8 9 9 9 8 7 7 9 10 9 6 7 10 11 9 7 9 7 8 10 9 9 7 8 7 7 9 9 11 10 7 3 6 5 5 5 7 7 7 7 8 5 5 6 7 9
6 5 5 6 6 6 6 7 7 6 6 6 5 4 4 5 4 5 4 5 5 5 4 5 5 6 7 7 7 7 7 7 8 7 7 7 8 8 8 7 7 7 7 8 7 7 8 8 8 7 8 9 10 9 7 6 7 9 10 10 8 7 8 8 8 8 9 10 9 9 8 6 6 8 4 4 5 5 8 7 9 7 7 9 12
5 5 5 5 5 6 6 5 5 5 5 4 4 5 4 4 5 5 4 5 5 5 5 6 6 5 6 6 6 6 6 6 6 6 6 7 7 7 7 7 8 7 7 7 7 8 8 9 8 8 9 9 9 9 8 9 7 8 8 8 8 8 9 8 7 8 9 9 11 11 9 7 3 1 3 3 3 5 7 9 12 10 11 9 10
5 5 5 6 6 5 4 4 4 4 4 4 4 4 5 5 5 5 4 5 5 5 5 5 5 5 4 5 5 5 6 6 6 7 7 7 7 8 8 8 8 8 8 8 7 8 8 8 8 9 10 12 15 13 12 11 8 9 9 8 9 9 9 8 8 8 8 9 10 8 8 7 7 7 6 7 11 15 7 7 9 8 5 5 7
6 5 6 6 5 4 4 4 5 4 4 5 5 5 5 5 5 4 5 5 4 4 4 4 5 6 6 5 5 5 6 5 7 11 10 8 7 7 6 7 7 7 8 8 7 7 8 7 8 13 14 14 14 15 16 15 15 12 10 9 10 9 9 9 9 9 9 10 11 10 11 11 10 10 11 11 8 2 3 8 11 9 3 6 6
5 5 5 4 4 4 4 4 4 4 4 4 3 4 3 3 3 3 3 3 4 4 4 4 4 5 5 5 5 5 4 3 7 9 11 11 7 6 7 7 6 6 6 7 8 8 7 7 6 8 10 11 12 15 15 16 16 17 17 15 13 12 10 11 11 9 10 11 10 10 11 12 12 9 11 9 6 9 9 7 8 5 9 10 14
4 4 4 4 3 4 4 4 4 2 3 3 3 3 3 3 3 3 3 2 1 2 3 4 3 3 3 2 3 3 2 3 5 6 7 9 8 6 6 6 6 6 6 7 8 7 7 6 6 5 6 8 8 8 11 14 16 17 17 17 17 18 17 14 12 10 11 11 10 12 11 13 11 10 10 7 11 8 8 7 9 10 10 11 12
4 4 3 4 4 4 4 5 4 4 4 3 3 4 4 4 4 4 4 3 4 4 3 3 2 2 2 2 1 1 1 2 3 4 5 5 7 7 5 5 6 5 5 5 6 6 6 6 5 5 6 9 8 7 7 8 11 15 16 16 17 18 18 20 18 14 9 12 13 13 13 10 11 12 9 10 6 9 6 8 9 9 11 12 13
4 4 3 3 3 3 4 4 4 4 3 4 4 4 4 5 4 4 5 4 5 4 3 3 3 3 3 3 2 1 0 2 2 2 3 4 5 5 4 5 5 5 5 5 5 5 5 6 6 6 5 4 5 6 6 7 7 7 7 8 9 12 16 18 18 19 15 12 11 14 10 7 13 7 6 6 8 11 9 12 9 10 12 15 13
4 4 4 3 3 3 3 3 3 2 2 2 3 3 3 3 3 3 4 5 5 6 5 4 3 3 3 3 3 2 1 3 3 3 3 4 5 6 4 4 4 4 5 4 4 4 4 5 5 6 5 5 5 6 6 7 6 7 7 7 8 8 8 9 9 10 11 11 12 12 9 7 10 8 6 8 13 12 12 14 14 14 13 7 6
5 4 5 4 4 3 4 4 3 3 2 2 2 1 1 0 1 0 1 1 1 2 2 2 3 2 1 3 2 1 1 3 2 1 2 3 3 3 3 3 4 4 5 3 4 4 4 4 5 5 5 5 6 9 9 6 6 7 8 8 7 6 7 7 11 11 11 11 11 10 9 7 8 7 7 8 8 8 7 7 4 3 4 7 13
5 5 5 4 4 3 3 4 4 3 3 3 2 1 1 1 1 2 2 1 1 2 2 1 1 2 2 2 2 1 5 6 6 6 5 5 4 2 2 2 2 2 3 2 3 3 3 3 4 4 4 5 6 8 9 9 6 7 8 8 7 6 7 5 10 13 13 14 15 14 13 12 11 11 10 11 9 7 6 6 11 6 6 13 13
3 5 5 4 4 4 4 4 5 4 4 4 3 3 2 3 3 3 2 2 2 2 2 3 3 2 2 1 1 5 4 7 9 9 8 7 5 2 1 1 0 0 2 2 2 2 3 5 5 4 4 5 7 9 9 7 6 7 7 8 8 8 7 5 5 6 8 10 11 11 12 12 11 12 12 10 11 9 9 12 8 7 12 13 13
4 5 4 4 5 5 5 6 5 5 5 3 3 4 4 3 1 3 4 4 3 2 3 5 4 5 5 5 8 7 5 7 10 10 11 9 6 4 4 3 2 2 2 4 3 2 3 4 5 5 5 6 8 9 10 8 7 6 7 7 9 9 7 4 6 6 5 6 7 6 7 8 7 8 8 11 12 12 11 12 7 9 13 12 11
3 4 4 5 5 6 5 6 5 5 4 3 4 4 3 3 5 4 4 4 4 4 4 5 6 6 6 7 7 6 6 6 7 12 11 12 10 5 4 4 3 3 3 3 3 3 3 3 4 6 6 7 8 10 11 11 8 6 5 7 8 10 3 4 6 6 6 6 6 5 6 5 4 5 5 6 8 9 10 11 9 9 11 12 11
3 4 5 6 6 6 6 5 6 5 4 4 4 5 5 5 5 5 4 4 4 5 5 5 7 7 7 7 7 8 6 5 7 12 13 14 13 9 5 5 4 3 2 2 2 2 2 3 3 5 8 8 7 7 7 8 8 6 6 7 7 6 4 3 4 5 5 5 5 5 5 4 5 5 5 5 6 7 8 9 10 10 11 11 11
5 6 7 7 6 7 6 6 6 6 5 5 6 6 5 5 5 4 5 5 5 5 5 6 7 6 7 7 7 6 7 9 6 11 14 14 14 14 7 5 6 4 5 3 4 3 3 3 3 6 9 8 9 9 9 9 9 4 4 7 8 9 6 5 3 3 4 4 5 5 5 5 5 5 6 6 6 6 7 8 9 9 10 10 11
6 7 7 7 7 7 7 8 7 5 6 5 6 6 5 6 6 6 5 5 6 6 5 4 6 6 6 6 6 6 6 6 10 8 12 13 13 13 12 8 10 6 4 3 3 3 4 4 4 8 9 10 9 10 9 10 6 4 9 9 6 7 6 3 3 4 4 4 5 6 5 5 5 6 6 6 6 6 6 7 7 7 8 8 3
7 7 7 7 7 7 7 7 7 6 6 6 7 7 7 6 7 6 5 5 5 6 5 4 5 5 5 5 5 5 5 4 7 9 9 12 12 12 11 11 10 4 3 2 2 3 4 4 5 9 10 10 10 10 10 9 6 9 10 9 9 6 4 3 3 4 4 5 5 6 6 5 5 6 6 5 6 7 7 5 3 2 2 1 1
8 7 7 6 6 6 7 7 7 6 5 6 6 6 6 6 7 5 6 6 6 6 5 4 5 4 5 4 4 4 3 3 3 6 9 10 13 13 12 12 12 11 6 5 4 4 7 10 10 10 10 10 10 9 8 8 10 10 10 9 7 4 4 4 4 4 5 6 6 6 7 6 6 7 6 5 5 1 1 1 1 1 3 3 3
7 6 6 6 6 5 8 7 7 7 7 7 6 6 6 5 6 5 6 6 6 6 5 5 5 5 5 4 4 4 5 5 6 6 6 7 8 12 13 12 10 10 7 6 8 10 10 9 10 10 8 7 5 4 5 5 8 9 8 6 3 3 3 3 4 4 5 5 6 6 6 5 5 5 3 2 3 5 5 4 4 3 2 2 3
7 6 7 6 5 6 7 6 5 5 5 6 6 6 6 5 6 6 5 5 5 5 5 5 5 5 5 4 3 4 4 4 5 5 5 6 5 4 5 5 5 5 5 6 6 6 6 6 6 8 8 9 7 5 4 4 4 3 3 3 2 2 2 2 3 4 4 4 4 5 3 3 4 4 3 4 5 6 4 5 5 5 5 3 5
7 6 7 6 6 5 6 6 7 6 5 6 6 5 6 6 6 6 4 4 4 4 4 3 3 3 3 3 3 3 4 4 4 4 5 4 4 4 4 4 5 5 5 5 5 6 4 5 6 5 4 5 5 4 4 2 2 3 3 3 3 3 3 4 3 3 3 3 4 4 4 4 4 4 3 4 4 4 1 2 4 5 2 3 3
7 7 6 6 6 5 5 5 5 5 6 7 7 6 4 5 7 6 7 5 4 4 4 5 4 3 3 3 3 3 3 3 3 6 6 8 6 4 4 5 5 4 6 10 6 4 4 4 5 5 5 5 5 5 6 6 7 6 5 6 6 5 3 3 3 3 4 3 4 5 4 4 3 3 3 4 4 3 2 2 3 3 2 2 5
6 6 6 6 5 5 5 5 5 5 5 5 7 8 13 13 9 7 7 12 14 12 9 5 3 2 4 4 4 2 2 3 8 10 10 10 11 12 11 11 10 8 10 11 7 4 5 4 5 6 6 6 6 6 6 6 6 6 7 7 7 6 6 6 5 4 3 2 2 3 4 3 3 3 2 3 4 2 1 1 2 1 2 4 5
6 5 6 6 6 5 5 5 4 5 5 5 6 6 6 9 15 17 14 13 13 14 14 14 14 11 6 2 5 10 9 10 11 12 12 13 13 13 13 12 11 12 13 5 6 6 5 5 5 6 6 6 6 6 7 7 7 7 7 7 6 7 7 6 7 7 6 4 3 2 2 2 3 3 3 3 3 3 1 1 1 2 3 4 5
7 5 5 5 6 5 5 5 4 5 5 5 5 5 6 6 7 11 13 13 13 13 13 13 13 13 13 10 6 4 8 10 11 12 12 13 13 13 12 12 13 13 11 10 5 5 5 4 5 6 6 5 6 6 6 6 7 7 7 7 7 7 7 7 9 7 6 6 5 5 4 3 3 3 3 3 2 2 3 3 2 3 4 3 4
7 6 5 5 5 6 5 5 5 5 5 6 5 5 5 4 5 4 5 9 12 13 13 12 12 12 13 14 14 11 9 10 12 14 14 14 14 12 11 12 14 15 13 9 5 5 5 5 5 5 5 5 6 5 5 6 6 6 5 6 7 7 7 8 9 7 6 6 6 5 4 4 3 3 2 2 2 3 3 3 3 3 3 4 5
5 4 4 5 5 5 5 4 5 5 5 5 5 5 5 4 3 3 3 2 2 5 8 11 10 9 11 12 13 12 13 12 13 13 14 13 13 12 10 6 12 17 12 6 6 5 4 4 4 4 4 4 4 4 4 5 5 4 5 5 5 7 8 8 6 7 7 8 7 6 6 5 4 3 3 3 3 3 3 4 3 4 5 5 6
6 9 10 6 4 5 4 4 4 4 5 5 4 4 4 4 3 4 3 3 3 3 3 4 7 9 7 7 11 12 11 11 11 12 12 12 13 11 10 8 6 6 7 5 5 4 4 3 3 3 3 3 4 4 3 4 4 4 5 5 5 6 6 7 6 7 7 7 7 7 7 7 6 5 4 4 4 3 4 4 4 5 5 5 5
6 5 5 6 5 4 4 4 5 5 5 4 4 4 4 4 4 4 3 2 3 2 2 2 2 5 9 9 11 10 10 10 10 11 12 12 13 10 6 5 4 4 4 4 4 4 3 3 2 3 3 2 3 3 3 3 4 4 4 4 5 5 6 6 7 7 7 6 6 7 7 6 7 6 5 5 4 5 5 5 5 5 5 6 5
5 5 4 4 4 4 5 6 6 6 6 5 5 4 4 4 4 4 4 4 4 4 4 4 5 6 5 5 7 9 9 9 9 10 11 11 13 8 5 4 4 3 5 3 3 2 3 4 1 2 4 2 3 4 3 3 4 4 4 4 4 4 4 5 6 6 6 6 6 6 6 6 7 7 6 6 6 5 5 5 5 5 5 6 5
6 5 5 4 4 5 5 5 6 7 5 5 5 4 4 4 4 5 5 5 5 5 5 5 4 3 6 6 7 5 3 7 6 7 7 8 7 5 5 3 3 2 1 2 1 1 1 2 3 2 3 3 3 4 3 3 4 4 4 3 4 4 7 6 7 6 6 5 5 6 7 7 7 7 7 7 6 6 5 5 5 5 6 6 5
6 10 10 9 7 5 4 5 5 5 4 4 4 5 5 4 4 4 4 3 3 3 3 3 3 3 4 3 5 5 5 6 5 4 4 4 3 3 2 3 2 1 1 1 1 1 0 1 3 1 2 2 2 3 3 2 3 4 3 4 4 4 5 4 5 5 5 5 5 6 6 6 7 7 7 7 6 6 6 6 5 5 5 6 6
4 3 6 9 5 5 5 5 4 4 5 4 4 3 4 2 1 1 1 2 4 3 3 3 3 4 5 2 3 3 3 3 2 1 1 3 2 2 1 0 1 1 1 2 1 1 0 2 2 1 2 3 3 2 3 2 3 4 3 3 3 4 5 4 4 5 5 5 5 6 6 6 6 6 6 6 6 7 7 7 6 5 5 6 5
5 4 4 5 5 4 4 4 4 3 3 3 2 3 2 2 1 2 1 2 2 3 3 4 4 5 4 4 7 7 0 1 3 1 2 1 2 2 2 2 1 1 2 1 2 2 2 2 3 2 2 3 3 2 3 2 3 2 3 3 4 4 4 4 4 3 4 4 4 5 5 6 6 6 6 7 8 7 7 7 7 6 6 5 6
3 3 3 4 4 4 4 4 4 4 3 2 2 2 2 2 1 1 3 2 4 3 4 4 5 5 5 8 7 8 2 1 1 3 3 2 2 3 3 3 3 2 3 4 4 3 2 2 2 2 2 3 2 2 2 2 3 1 2 3 3 3 3 4 4 3 3 3 4 4 4 5 6 6 7 8 7 7 7 7 7 7 6 6 5
3 3 3 4 4 4 4 2 3 4 3 2 2 2 2 2 2 4 3 4 3 4 3 5 5 4 3 6 6 6 2 2 4 3 3 4 4 4 4 4 4 4 4 4 4 3 3 3 3 3 3 2 3 3 2 3 2 1 2 2 3 5 4 4 3 3 4 4 4 4 4 4 5 4 5 6 6 6 6 7 7 6 6 7 6
5 4 4 3 2 2 2 1 1 2 1 2 2 3 3 3 3 3 3 4 4 4 5 5 5 5 4 5 4 3 3 5 4 5 4 5 4 4 5 4 4 3 4 4 4 2 2 3 4 4 3 2 3 1 1 2 1 1 2 2 3 4 4 3 3 4 4 4 5 4 4 4 3 4 4 6 5 6 6 6 6 6 6 6 6
3 3 2 2 1 1 0 1 1 1 3 3 2 3 4 2 3 4 3 4 6 5 5 4 4 4 6 6 4 4 6 5 6 6 6 6 6 6 5 4 5 4 4 5 4 3 3 4 4 3 3 4 3 2 3 3 2 2 3 3 4 4 6 5 5 4 5 4 5 4 5 5 4 5 5 5 4 4 5 5 6 7 8 6 5
2 1 1 0 1 2 2 1 3 1 2 3 4 4 5 3 4 4 6 5 5 5 6 5 5 4 6 6 5 6 7 5 6 6 7 6 6 6 5 5 5 5 5 6 5 4 5 4 4 5 5 4 5 3 3 3 3 3 3 3 4 6 6 5 4 4 5 4 6 5 5 4 5 5 6 5 5 5 5 6 5 6 6 7 7
1 1 0 1 1 3 3 3 2 3 3 3 3 4 5 5 4 4 6 6 6 7 6 6 5 6 6 6 7 6 7 6 7 7 6 6 5 6 6 5 5 6 6 6 4 5 5 5 5 5 5 4 4 4 4 4 3 3 2 3 4 5 4 4 5 4 6 5 5 4 6 5 6 4 6 5 5 5 5 6 6 7 6 6 7
3 3 2 3 2 2 3 2 3 4 4 5 4 5 6 6 6 6 6 6 6 6 6 6 7 7 7 6 6 7 6 7 7 7 6 7 5 5 5 4 6 6 6 6 5 6 5 5 6 5 6 4 4 4 5 4 4 4 4 4 4 4 6 7 6 6 5 5 5 5 4 5 5 4 4 5 5 5 6 6 6 6 7 7 8
3 2 1 1 2 3 4 4 5 5 5 5 4 5 6 5 6 6 6 6 6 6 6 6 6 6 6 7 7 7 7 7 6 6 6 6 5 6 6 4 6 6 6 6 7 6 7 6 6 6 6 6 5 5 5 4 4 4 3 3 5 9 12 12 8 7 6 2 2 2 1 2 3 4 4 4 6 5 6 6 6 7 7 6 7
2 3 3 3 5 4 5 4 5 5 6 6 6 6 6 6 6 6 6 6 6 6 7 6 7 7 7 7 7 7 5 6 6 6 6 6 6 5 5 6 6 6 6 6 6 7 6 5 5 6 6 5 6 5 4 5 4 5 3 5 9 13 12 14 9 3 3 2 3 3 3 4 3 4 5 5 5 6 6 6 7 7 7 7 7
5 4 5 5 5 4 4 4 5 6 5 6 6 6 6 7 7 6 6 7 7 7 7 7 7 7 7 6 7 6 6 6 6 6 6 7 6 5 6 7 7 6 5 6 7 7 6 5 6 6 5 5 5 6 4 5 4 3 7 12 13 13 12 5 2 5 7 5 4 3 3 4 4 5 5 5 5 5 8 8 8 7 6 6 7
Wind_Direction
205 217 202 210 208 213 214 208 212 206 203 201 203 207 206 204 205 205 182 202 193 197 198 199 198 200 198 199 199 196 197 199 194 193 197 204 205 206 201 197 206 216 214 220 215 210 215 220 221 218 200 212 216 211 213 206 201 206 195 196 206 199 191 199 221 253 263 208 217 237 233 152 226 218 226 226 230 230 223 232 230 235 240 240 246
208 214 206 205 206 211 212 207 208 201 206 208 215 211 208 206 200 185 200 204 191 200 201 200 200 198 197 202 201 200 199 199 194 191 200 202 207 205 206 203 211 217 208 222 212 215 216 222 228 217 201 215 218 214 210 204 203 203 205 196 205 206 199 193 224 229 250 175 257 236 259 188 232 192 211 214 231 217 226 228 230 228 233 237 244
210 201 198 200 211 210 201 204 202 206 205 212 214 214 211 205 192 195 203 202 200 202 201 200 199 195 200 201 200 201 200 201 197 197 203 202 206 207 207 206 212 215 214 221 216 212 218 225 230 216 197 217 225 223 208 211 204 209 216 201 214 213 201 207 208 231 243 245 193 215 207 201 214 218 214 229 236 216 229 229 227 233 235 232 236
202 191 195 202 203 197 201 202 197 204 209 215 216 217 211 205 190 201 205 198 200 208 201 199 195 196 200 201 200 202 201 200 198 201 203 201 205 207 205 209 213 217 219 222 217 206 218 225 233 212 201 218 229 225 216 207 206 215 221 219 218 222 205 201 219 229 232 249 219 204 200 196 238 247 217 224 229 227 221 246 256 245 237 233 235
192 198 191 195 197 196 205 198 198 203 211 213 220 218 215 207 193 200 194 201 204 192 204 190 195 196 202 202 203 203 202 198 200 202 204 203 207 208 207 210 215 218 220 222 216 211 220 225 233 204 202 220 235 228 215 209 215 210 222 225 219 225 209 198 217 222 232 236 243 201 180 210 240 218 194 199 232 233 243 232 228 232 244 240 244
198 195 199 196 199 199 201 194 201 203 204 209 214 214 211 206 206 209 193 202 197 195 190 193 192 200 205 205 203 205 199 200 202 201 200 200 204 208 209 210 215 218 221 222 215 210 220 228 233 200 199 215 230 231 221 221 216 218 224 228 225 222 221 219 214 221 225 237 239 241 179 202 220 231 201 197 197 224 243 247 254 242 238 251 238
193 195 198 199 194 202 195 200 199 200 200 206 204 202 204 206 200 210 202 200 195 198 199 195 206 199 207 201 202 198 199 199 201 199 198 199 203 206 211 213 217 219 224 222 217 214 219 227 229 210 207 217 228 230 223 220 217 224 224 229 229 220 223 224 215 219 223 233 242 239 233 225 201 225 223 181 214 213 219 235 248 230 225 224 242
179 187 184 199 201 202 202 194 191 195 195 191 193 198 199 199 205 209 184 196 199 198 195 196 205 195 201 200 205 196 198 197 197 197 197 198 200 208 208 211 216 220 225 224 218 219 218 222 225 218 211 214 219 227 212 218 212 223 223 225 224 220 224 227 222 220 226 230 232 237 232 218 220 277 58 114 208 267 230 214 228 226 226 221 229
170 175 181 191 206 198 186 188 179 179 179 180 188 196 199 202 201 197 190 201 203 203 197 189 186 198 201 198 198 193 193 199 192 192 194 200 200 206 207 210 213 218 224 227 226 223 223 223 224 226 218 218 218 220 220 212 204 215 221 210 214 216 224 224 224 219 231 232 241 241 247 232 220 196 202 197 202 219 204 196 240 243 248 240 241
165 173 181 197 196 184 177 169 173 171 165 179 192 191 191 192 185 185 195 201 202 201 190 189 186 191 195 201 198 193 200 198 197 195 195 195 200 207 208 212 214 218 223 231 235 229 229 226 230 229 228 226 226 227 229 225 218 215 217 203 208 212 217 220 219 218 222 228 231 227 235 237 226 215 221 222 221 225 137 188 223 229 252 267 283
171 170 188 196 180 163 151 162 147 162 181 170 162 161 170 161 164 178 191 186 196 195 176 185 199 197 193 192 198 203 202 192 200 201 204 203 195 201 207 216 213 219 224 229 237 237 235 234 237 238 238 239 238 236 234 233 232 228 227 217 207 203 210 216 223 212 218 225 226 223 230 235 231 219 227 226 200 207 215 195 210 176 206 222 241
160 180 185 161 151 148 145 131 124 123 114 132 136 136 118 119 125 135 135 139 144 125 163 196 196 195 186 180 183 186 188 186 197 204 209 210 205 202 207 215 214 218 225 229 239 242 242 240 238 236 235 234 235 239 241 241 239 237 234 231 225 218 213 210 217 218 218 226 228 226 225 230 231 216 224 208 225 208 214 189 201 201 210 219 230
145 147 147 142 140 132 132 130 133 131 138 139 136 125 124 118 127 134 142 153 131 135 154 137 147 132 149 154 165 147 168 219 193 200 205 209 213 209 214 214 219 230 227 232 240 246 250 251 256 241 240 242 241 241 243 248 246 244 243 242 239 232 229 228 225 224 212 224 231 234 221 228 231 230 209 220 203 221 193 211 215 214 222 225 230
117 109 92 90 106 114 125 129 137 147 143 140 134 133 138 152 155 150 138 138 134 131 133 136 134 143 149 153 150 109 197 245 199 201 200 205 214 204 207 209 218 227 229 232 236 246 246 248 258 264 250 245 241 242 245 247 249 251 248 241 239 242 241 238 237 238 234 230 232 239 235 205 237 230 210 193 184 217 202 225 218 224 230 231 231
96 96 88 70 76 82 90 92 99 80 59 102 108 123 139 151 153 175 163 164 164 167 164 161 171 157 149 141 138 158 215 211 213 202 202 201 203 193 189 189 201 216 223 221 223 227 235 234 238 252 263 249 231 232 237 241 244 247 246 245 238 238 236 237 235 236 237 238 240 244 245 222 237 234 202 195 205 212 206 217 213 218 231 253 278
87 82 74 57 58 56 91 93 88 81 73 67 77 66 26 70 124 273 64 38 34 71 59 104 138 153 124 118 113 125 333 11 42 113 162 191 181 160 159 180 197 212 223 220 222 226 225 227 234 247 251 254 247 237 233 231 238 244 245 248 246 239 236 227 232 236 238 241 243 247 249 247 242 234 215 204 211 217 225 245 267 246 241 249 245
77 81 77 63 57 49 70 96 84 71 73 76 56 43 29 6 16 8 53 27 68 78 114 81 98 103 85 87 99 50 25 6 27 43 45 46 84 102 129 146 182 218 245 234 226 227 225 219 221 237 247 255 256 252 249 231 237 239 246 250 246 243 242 224 233 242 246 251 258 265 268 267 261 256 244 221 209 200 203 218 230 185 201 241 247
62 72 71 61 61 59 56 70 77 69 69 65 60 52 38 40 38 20 96 77 48 19 42 40 20 45 81 87 103 83 50 22 46 50 52 55 75 96 115 123 190 294 301 302 281 267 255 243 232 226 239 249 250 251 253 244 243 238 242 250 256 253 248 218 234 238 241 252 255 257 257 259 256 253 248 231 218 201 195 224 218 174 224 233 245
68 80 75 72 71 70 71 73 73 72 69 58 59 60 51 49 8 39 51 70 60 43 58 75 57 38 43 56 58 73 60 29 37 47 49 50 51 48 60 69 49 354 342 321 316 295 291 283 261 248 245 257 257 255 255 246 245 240 238 244 251 250 245 211 228 234 239 245 246 239 251 243 239 237 237 236 223 210 212 227 210 201 225 234 238
86 86 79 68 70 65 66 74 69 68 67 61 54 49 21 38 36 49 41 58 67 51 59 73 70 47 41 53 52 49 56 39 36 49 53 52 55 61 50 55 28 11 353 330 331 329 318 313 322 336 328 307 289 278 271 262 254 254 244 249 254 263 237 220 228 220 237 233 243 237 241 238 226 226 220 221 230 219 218 222 223 219 228 238 235
78 77 70 65 60 62 57 63 69 62 59 72 74 55 40 43 38 43 43 51 69 56 62 70 72 59 50 50 57 45 40 38 30 46 51 53 51 56 50 49 23 5 338 355 328 338 337 351 355 352 351 349 344 337 318 299 280 259 252 253 255 267 273 249 259 232 244 250 249 251 252 246 244 240 235 228 224 225 223 222 223 222 226 234 238
83 78 73 67 61 55 54 50 52 53 43 53 65 55 40 48 48 44 50 66 68 61 60 74 79 70 57 49 50 45 35 38 25 36 46 48 49 49 49 34 34 21 12 6 3 4 3 352 343 334 340 342 342 341 340 343 341 328 270 255 264 275 268 248 244 245 244 252 253 258 258 250 255 249 244 240 235 234 234 231 228 229 232 234 233
84 82 76 69 63 58 53 50 46 42 47 50 69 63 46 51 45 45 55 65 71 66 58 74 85 78 65 50 43 38 30 28 36 30 41 46 46 45 42 39 40 42 40 18 3 331 327 335 328 344 344 342 337 331 331 333 341 328 331 329 308 279 269 250 228 231 245 248 247 252 246 237 242 244 237 242 240 234 240 239 238 238 241 249 266
83 81 76 73 70 63 60 56 51 46 43 50 62 62 49 51 53 46 51 65 71 68 48 60 73 70 67 51 34 27 19 26 28 35 35 42 43 42 38 34 34 45 47 8 336 322 322 319 324 332 331 328 326 326 325 322 310 313 319 323 330 333 314 288 256 237 240 248 252 255 255 241 236 246 244 234 234 234 233 242 254 282 289 296 42
86 85 83 80 78 79 73 65 61 58 52 58 67 61 54 50 57 34 51 55 63 71 56 59 70 72 67 56 33 21 9 19 25 29 35 32 35 30 27 23 17 17 8 340 328 314 317 321 324 324 324 322 321 324 324 314 313 315 314 317 318 297 299 282 277 269 259 256 255 255 256 249 236 240 242 232 237 191 86 13 50 31 45 66 77
84 83 80 75 73 79 81 71 65 63 65 67 71 71 73 67 72 56 60 63 62 70 62 64 63 65 70 55 45 23 16 20 19 18 22 21 21 21 13 8 358 356 350 321 316 320 318 313 312 311 310 305 303 298 298 298 306 310 316 321 311 307 292 293 281 277 272 275 274 269 266 265 250 250 255 264 233 233 226 210 207 227 166 168 237
82 73 71 68 60 63 74 75 74 62 59 68 71 71 71 73 71 64 63 64 66 68 67 68 65 66 67 62 48 39 27 25 24 9 11 22 2 3 352 332 324 322 313 304 304 298 301 300 290 298 302 302 299 288 280 294 316 317 333 322 328 320 317 301 279 283 295 293 294 297 332 339 349 354 287 248 241 244 224 218 230 232 194 172 226
85 83 75 72 67 62 70 72 79 82 73 70 71 66 65 66 66 68 54 61 79 77 76 62 63 63 66 62 53 54 38 26 23 23 351 2 344 342 320 314 311 300 306 292 283 283 289 305 314 311 319 327 325 337 337 336 333 346 343 339 341 331 339 323 328 305 289 295 295 295 292 297 307 275 285 267 259 276 338 217 239 250 214 153 234
78 78 78 77 74 71 71 66 67 79 85 79 71 63 54 61 67 60 59 46 62 67 74 77 63 42 61 43 49 29 39 26 20 24 7 359 353 345 321 313 301 317 310 327 335 344 341 344 329 352 360 1 359 358 359 10 1 1 3 346 344 344 343 349 349 330 324 339 327 318 321 309 302 307 320 284 275 288 9 24 309 285 340 252 226
84 76 74 75 72 73 71 67 58 60 71 90 99 84 71 69 71 71 53 60 69 77 84 78 82 63 63 34 60 75 330 13 34 26 11 5 3 1 356 353 354 356 346 352 23 20 359 21 8 15 1 9 6 16 8 8 5 10 356 8 1 358 357 354 346 325 328 320 299 324 314 317 309 283 278 273 283 349 354 6 274 325 153 240 248
82 73 70 66 68 65 67 65 64 71 70 74 83 93 89 71 70 69 70 67 64 67 72 74 76 76 82 38 10 33 30 24 32 28 16 9 8 5 3 7 8 7 359 23 28 33 11 16 14 15 10 9 12 9 6 5 1 4 352 354 356 3 2 357 347 336 328 312 320 316 309 304 282 280 267 265 274 289 23 16 114 276 234 223 246
87 75 67 68 68 63 68 73 70 75 68 66 68 85 96 100 81 75 71 67 67 67 66 66 64 60 59 58 55 11 22 26 26 26 19 12 10 6 7 17 20 17 22 56 59 26 31 27 19 17 11 12 3 10 3 6 357 360 350 349 348 354 3 348 337 337 326 333 329 326 322 309 292 284 275 258 259 260 261 258 244 232 252 257 250
82 76 74 72 75 77 75 75 70 67 69 70 68 73 82 87 98 88 61 79 73 65 60 56 54 51 49 43 39 38 31 27 27 24 16 13 10 9 12 20 34 30 40 44 53 34 27 33 28 20 18 10 356 5 1 360 357 354 350 347 343 340 344 328 331 334 338 341 335 330 322 323 302 294 277 244 223 237 255 232 238 234 230 251 258
83 84 87 91 87 80 71 69 72 71 70 70 73 72 67 77 67 86 80 19 35 45 51 48 50 54 45 45 36 30 26 26 28 25 17 12 10 10 24 27 43 44 56 57 41 41 26 38 24 17 24 10 352 3 358 359 356 356 344 342 340 331 330 323 333 336 349 342 345 339 337 331 321 308 287 277 241 238 242 244 222 215 235 233 239
80 82 82 81 80 79 80 72 75 78 79 75 70 76 78 75 84 78 75 78 64 41 9 7 22 40 51 38 36 30 26 23 29 29 22 18 18 18 43 34 27 13 32 37 51 37 48 27 34 5 10 15 349 4 348 359 348 359 341 335 336 330 330 333 341 349 346 339 339 338 340 341 329 318 295 282 276 250 245 242 234 228 229 242 240
73 73 66 69 64 70 69 74 73 71 68 63 59 62 64 71 69 64 65 70 74 47 23 10 33 356 36 31 32 24 23 23 31 29 30 22 26 36 50 28 43 20 40 11 53 30 36 30 55 357 341 6 343 347 341 6 335 352 321 333 334 332 330 333 343 344 339 337 334 333 336 334 332 330 316 299 273 264 259 251 242 241 238 238 243
68 66 61 57 58 49 54 58 54 57 57 49 47 39 40 50 53 52 42 39 40 32 18 343 355 1 22 10 21 15 11 20 29 27 29 26 32 46 61 49 53 29 24 7 29 25 27 342 25 39 335 11 345 331 359 343 321 341 331 337 326 323 313 333 342 342 331 333 332 334 334 333 333 333 326 314 298 286 265 260 257 248 245 241 243
77 77 76 68 55 57 55 55 56 56 49 46 39 50 40 41 46 41 35 23 19 13 1 354 7 11 351 330 358 356 357 359 19 22 20 23 24 29 29 25 30 39 14 351 360 90 6 321 336 22 329 341 337 328 340 330 317 331 317 327 325 311 337 343 343 339 340 338 338 345 342 340 341 339 333 325 314 304 290 268 258 255 258 242 233
69 74 71 67 69 63 60 60 59 60 51 46 38 48 34 37 38 37 31 23 8 340 337 338 344 332 318 322 351 320 34 354 10 8 3 360 2 17 54 16 2 6 341 332 315 26 298 320 317 347 319 319 318 318 315 316 317 317 316 329 315 323 336 342 346 334 344 337 352 343 345 337 338 335 332 327 323 319 311 304 274 256 247 251 237
51 46 65 67 55 60 62 62 60 60 53 56 26 52 38 21 53 45 10 8 333 321 323 322 314 303 297 331 311 314 37 317 307 287 345 328 324 318 350 215 286 254 274 280 296 244 262 283 277 293 288 294 296 299 307 313 324 307 328 320 330 346 328 344 329 337 341 344 352 344 343 336 332 329 330 328 328 330 324 317 313 295 276 264 257
47 64 62 64 73 61 59 60 55 62 58 41 45 53 8 20 26 2 333 311 290 290 288 280 275 280 284 291 307 319 298 255 277 267 262 243 264 281 288 260 225 249 274 241 254 239 233 249 270 273 281 288 283 310 298 326 313 332 331 328 335 329 324 329 316 342 339 346 342 336 332 334 334 332 333 326 329 330 323 323 318 313 299 283 270
88 79 71 62 52 58 52 35 39 37 13 30 25 356 336 320 306 285 273 275 276 276 274 274 272 269 280 295 305 307 334 248 265 254 264 265 244 246 248 245 246 235 232 246 246 244 256 252 253 265 261 277 288 295 300 327 297 329 316 317 310 311 315 306 312 350 335 335 329 318 328 330 328 331 326 323 323 323 326 324 320 320 319 305 294
69 63 54 51 46 38 37 16 21 19 11 5 331 306 304 276 261 268 268 265 264 266 265 274 280 278 271 276 291 298 304 285 277 275 271 267 263 256 251 249 250 248 245 244 251 236 224 234 247 256 256 257 269 270 275 263 274 289 291 292 295 288 281 285 312 323 319 323 311 305 314 311 314 315 315 315 315 318 311 314 316 318 320 317 312
56 58 47 55 50 52 26 11 32 340 333 299 304 301 283 276 280 279 271 272 270 265 264 264 269 277 278 285 296 301 284 275 274 271 263 265 263 260 256 254 257 268 270 264 258 247 220 249 257 263 270 259 266 273 260 251 250 239 262 268 283 279 274 284 298 293 294 300 291 292 291 292 298 303 302 307 310 310 307 311 311 312 313 314 311
74 67 69 59 12 54 360 333 300 292 289 308 300 286 283 278 278 273 269 266 271 274 275 273 278 279 283 282 283 272 270 266 266 266 269 265 265 266 270 269 270 271 270 269 262 257 248 249 248 244 262 276 275 266 271 279 266 239 239 238 250 270 269 265 259 267 281 282 280 283 286 283 286 286 286 288 297 302 303 302 304 309 307 303 305
94 83 69 360 24 331 310 289 273 270 282 276 274 277 275 269 265 272 275 278 277 277 273 274 267 266 265 269 271 275 272 272 269 265 265 267 268 270 271 270 268 264 261 260 265 268 253 233 228 236 244 252 266 272 271 267 272 270 258 241 236 247 256 262 267 278 271 267 269 272 276 279 277 273 286 289 294 294 291 294 296 291 293 295 292
128 142 181 228 249 259 263 249 254 258 251 258 258 265 275 273 266 262 262 259 262 266 266 267 271 269 269 269 270 270 269 266 266 269 265 264 265 265 269 269 271 273 272 273 269 265 263 252 236 226 232 239 241 256 266 264 260 261 266 262 259 264 271 274 272 266 269 263 261 269 273 276 280 286 291 295 293 290 292 292 295 296 296 293 292
181 186 198 207 222 245 255 264 264 273 270 264 265 263 264 268 271 268 268 266 265 265 266 266 263 262 265 264 259 255 256 256 258 258 262 264 264 264 264 263 266 266 271 274 273 267 257 249 244 233 232 233 233 242 250 258 257 254 260 265 260 257 267 274 275 273 266 267 264 258 258 266 280 285 288 290 288 289 294 293 298 293 292 293 292
189 196 223 235 247 254 259 263 267 265 263 270 272 273 269 269 266 264 262 261 261 260 257 260 264 260 253 253 253 253 254 258 260 264 263 265 263 265 259 257 259 260 260 263 264 261 256 251 246 234 227 230 221 229 242 243 245 250 251 253 263 280 284 285 280 266 263 274 290 298 297 275 273 281 284 288 288 291 286 287 286 288 292 288 288
218 219 227 243 247 252 250 248 255 262 267 261 258 263 264 259 261 260 257 257 259 259 256 254 255 254 255 262 261 260 260 260 261 263 263 263 260 257 256 254 253 251 249 251 255 253 251 247 247 248 240 231 231 229 230 239 246 250 264 261 274 280 282 282 287 323 329 318 301 290 281 283 282 278 279 277 282 286 284 282 281 282 283 286 283
227 230 234 238 247 251 250 250 254 252 249 250 249 252 257 257 257 259 260 257 257 258 259 255 257 258 255 253 256 260 260 259 257 257 258 258 257 255 251 251 253 253 253 251 254 254 250 251 249 247 243 239 235 230 226 229 245 246 260 275 284 289 292 314 2 316 313 308 294 291 290 283 283 286 281 282 275 274 275 279 280 278 278 277 281